Location: Meadowbank Aerodrome
(65.0250°N, 96.0705°W)
Time: 09:01:54
(UTC-05:00)

Cosmos 2221 - Visible Passes

Search period start: 21 August 2014 00:00
Search period end: 31 August 2014 00:00
Orbit: 598 x 623 km, 82.5° (Epoch: 20 August)

Date Brightness Start Highest point End Pass type
(mag) Time Alt. Az. Time Alt. Az. Time Alt. Az.
21 Aug 2.5 01:11:06 19° SSW 01:14:17 84° ESE 01:18:41 10° NNE visible
21 Aug 4.2 02:48:44 10° WSW 02:52:31 27° NW 02:56:18 10° N visible
21 Aug 3.8 23:48:42 15° SE 23:51:35 28° E 23:55:20 10° NNE visible
22 Aug 2.7 01:25:40 17° SSW 01:28:59 71° WNW 01:33:22 10° NNE visible
22 Aug 4.5 03:04:01 10° W 03:07:27 22° NW 03:10:53 10° N visible
22 Aug 4.9 22:29:19 10° ENE 22:29:31 10° ENE 22:29:43 10° ENE visible
23 Aug 3.3 00:03:14 18° SSE 00:06:06 38° E 00:10:09 10° NNE visible
23 Aug 3.2 01:40:13 15° SW 01:43:45 52° WNW 01:48:02 10° NNE visible
23 Aug 4.8 03:19:26 10° W 03:22:27 18° NW 03:25:27 10° N visible
23 Aug 4.6 22:41:36 10° ESE 22:43:50 14° ENE 22:46:04 10° NE visible
24 Aug 2.8 00:17:47 20° SSE 00:20:40 53° E 00:24:56 10° NNE visible
24 Aug 3.7 01:54:45 12° SW 01:58:34 39° WNW 02:02:41 10° N visible
24 Aug 5.0 03:35:00 10° WNW 03:37:29 15° NW 03:39:59 10° N visible
24 Aug 4.3 22:55:20 11° ESE 22:58:13 19° E 23:01:15 10° NE visible
25 Aug 2.5 00:32:18 20° S 00:35:17 75° ESE 00:39:39 10° NNE visible
25 Aug 4.1 02:09:33 10° WSW 02:13:26 30° NW 02:17:18 10° N visible
25 Aug 5.2 03:50:43 10° NW 03:52:34 12° NNW 03:54:26 10° N visible
25 Aug 3.9 23:09:51 14° SE 23:12:39 25° E 23:16:13 10° NNE visible
26 Aug 2.6 00:46:49 19° SSW 00:49:58 80° WNW 00:54:21 10° NNE visible
26 Aug 4.5 02:24:47 10° WSW 02:28:21 24° NW 02:31:54 10° N visible
26 Aug 5.3 04:06:44 10° NW 04:07:42 11° NNW 04:08:39 10° N visible
26 Aug 3.4 23:24:21 17° SSE 23:27:08 34° E 23:31:05 10° NNE visible
27 Aug 3.0 01:01:19 16° SW 01:04:42 58° WNW 01:09:01 10° NNE visible
27 Aug 4.8 02:40:10 10° W 02:43:19 19° NW 02:46:28 10° N visible
27 Aug 4.6 22:03:11 10° E 22:04:57 12° ENE 22:06:42 10° NE visible
27 Aug 2.9 23:38:50 19° SSE 23:41:41 47° E 23:45:52 10° NNE visible
28 Aug 3.5 01:15:48 13° SW 01:19:29 43° WNW 01:23:40 10° NNE visible
28 Aug 5.1 02:55:40 10° WNW 02:58:20 16° NW 03:01:00 10° N visible
28 Aug 4.3 22:16:32 10° ESE 22:19:18 17° E 22:22:03 10° NE visible
28 Aug 2.6 23:53:19 20° S 23:56:17 66° ESE 00:00:36 10° NNE visible
29 Aug 4.0 01:30:22 10° WSW 01:34:20 33° NW 01:38:17 10° N visible
29 Aug 5.2 03:11:19 10° WNW 03:13:24 13° NNW 03:15:28 10° N visible
29 Aug 3.9 22:30:48 12° SE 22:33:43 22° E 22:37:05 10° NNE visible
30 Aug 2.5 00:07:46 19° SSW 00:10:56 89° WNW 00:15:18 10° NNE visible
30 Aug 4.4 01:45:34 10° WSW 01:49:13 26° NW 01:52:53 10° N visible
30 Aug 5.3 03:27:12 10° NW 03:28:30 11° NNW 03:29:48 10° N visible
30 Aug 3.5 22:45:15 15° SE 22:48:10 30° E 22:51:59 10° NNE visible
